Theta_e
309 309 309 310 311 309 308 311 312 312 312 312 312 311 309 308 308 308 308 309 308 308 308 308 307 307 307 306 305 307 306 305 306 306 308 307 310 310 311 311 313 313 316 316 317 323 327 313 318 319 314 315 313 313
309 309 310 311 309 310 312 312 312 312 312 312 312 311 308 308 308 308 308 309 309 308 308 308 308 309 309 308 307 307 307 306 306 305 305 307 310 309 310 312 310 314 311 313 312 317 313 310 316 313 312 311 311 311
310 310 311 309 309 312 312 312 312 312 313 313 311 310 309 308 308 308 308 308 308 306 308 309 309 308 308 308 308 307 307 307 306 306 305 306 309 307 309 309 311 309 309 310 309 309 309 310 312 312 312 312 311 311
310 311 311 308 311 312 312 312 312 313 312 312 311 310 310 310 309 309 308 307 307 307 306 310 310 309 308 307 307 308 308 307 306 305 304 305 308 305 309 307 310 309 308 309 309 308 310 312 313 314 314 314 313 314
311 312 311 309 312 313 312 312 313 313 312 312 311 312 312 311 310 309 309 308 308 308 307 310 310 311 309 307 306 307 307 306 306 305 305 306 305 305 304 305 310 309 310 311 311 310 310 310 313 314 313 313 314 313
311 312 310 310 312 313 312 313 313 312 314 312 311 312 312 312 312 312 311 310 309 308 308 308 312 312 312 310 308 306 306 305 304 303 302 302 302 304 306 309 308 308 308 308 310 310 313 313 314 315 313 313 313 313
312 312 309 311 312 312 313 314 315 312 313 313 311 311 312 312 311 310 310 310 308 308 309 310 311 313 312 312 310 308 307 306 304 303 302 302 303 303 303 308 310 308 308 308 308 309 310 311 312 313 312 312 311 313
312 312 309 312 312 312 314 314 316 315 313 314 314 313 313 314 313 313 312 311 309 310 310 312 313 313 313 312 310 309 308 307 306 305 303 303 303 301 307 309 310 308 307 307 308 308 308 309 310 312 313 313 314 314
312 312 310 312 312 312 313 314 315 316 316 316 316 315 315 315 315 314 313 312 311 310 311 311 315 316 314 313 311 310 309 308 307 307 306 305 304 308 309 310 310 307 307 306 307 307 307 307 308 312 313 313 313 313
312 312 310 311 312 312 312 315 315 316 317 318 318 317 318 316 315 314 313 313 312 312 311 309 314 314 314 313 313 312 309 311 312 309 307 307 306 309 309 309 310 308 306 306 306 306 306 306 306 306 308 313 313 313
312 312 313 310 312 312 313 315 316 316 316 316 317 319 316 317 315 316 314 312 313 312 313 314 314 313 315 314 314 313 312 310 306 311 311 310 309 308 308 307 307 309 307 306 306 305 306 306 305 305 305 306 312 314
312 312 313 311 311 312 313 314 316 316 316 317 316 317 317 318 316 313 310 312 311 311 316 316 317 316 316 315 314 314 314 310 312 308 308 311 308 309 307 306 307 307 308 307 305 305 304 305 306 305 305 304 304 308
312 312 314 314 316 316 314 313 315 316 316 316 320 318 320 317 308 313 308 310 309 312 314 313 315 318 316 315 315 314 314 311 308 309 310 307 311 307 306 306 306 306 308 307 307 305 304 303 304 304 304 304 304 304
312 312 313 316 317 314 314 313 316 316 317 318 320 308 312 310 311 309 309 308 312 312 312 313 317 316 317 314 309 313 309 307 308 309 308 305 310 307 306 305 305 306 306 308 307 306 304 304 303 302 301 301 303 304
313 312 311 317 316 314 315 316 316 317 317 319 319 309 311 313 313 313 313 312 312 312 313 318 315 313 309 311 307 307 309 306 308 309 307 310 310 309 307 305 304 305 305 307 308 307 305 303 304 303 302 301 300 301
314 313 313 315 313 313 317 318 318 319 318 319 319 313 313 312 312 314 313 312 312 311 313 313 310 309 311 308 310 311 307 305 307 308 308 310 310 308 305 304 304 305 305 306 307 307 306 305 303 303 303 302 300 300
313 314 313 313 311 312 315 318 319 320 318 318 318 316 315 314 313 314 313 313 312 311 307 309 311 312 306 308 309 305 304 303 305 305 308 309 309 309 307 305 305 305 305 305 304 306 306 306 305 304 302 301 301 300
313 314 314 312 311 312 318 320 321 319 318 319 317 317 316 315 314 314 313 312 312 311 311 310 308 308 308 309 306 303 307 306 305 304 305 304 303 303 305 305 303 304 305 305 304 303 303 302 301 300 301 301 301 300
313 315 314 312 312 315 320 323 322 319 320 319 318 317 317 317 316 315 314 313 312 310 310 309 307 306 305 306 306 307 306 305 305 305 305 304 304 303 304 305 303 304 304 303 302 301 302 301 300 300 300 300 299 299
315 315 315 316 314 318 322 324 320 320 320 319 319 318 318 318 318 317 314 313 312 311 309 307 306 309 309 308 307 307 305 306 305 304 304 304 304 303 303 304 304 304 304 302 301 301 301 301 300 300 299 299 300 299
315 319 317 314 320 322 322 322 319 321 321 320 319 320 320 319 318 317 314 312 312 311 309 310 310 309 308 308 307 306 306 305 304 305 305 304 302 302 302 303 303 303 303 302 301 301 301 300 300 300 299 299 299 299
317 316 317 319 324 325 324 323 321 319 319 319 320 320 319 318 318 317 317 315 314 312 311 311 310 309 309 308 309 309 307 305 306 303 303 301 301 302 302 302 301 301 301 302 301 301 300 300 300 299 300 299 299 299
320 320 320 324 325 323 321 319 319 320 320 320 320 319 318 318 316 315 315 315 314 313 312 311 312 311 309 310 309 309 308 307 304 302 301 301 301 301 300 300 301 301 301 301 301 301 300 299 299 299 299 299 299 299
319 322 325 325 324 320 320 320 322 323 322 319 317 319 316 316 315 315 317 315 315 313 312 312 312 312 311 311 311 310 309 305 303 302 301 300 300 300 300 300 300 300 300 300 300 300 300 299 299 299 300 299 299 299
320 320 319 317 318 319 318 319 319 318 317 317 317 318 316 315 314 315 315 315 314 314 313 313 312 311 310 310 309 307 304 303 302 301 300 300 300 300 300 299 299 298 298 299 299 300 299 298 298 299 299 299 298 298
313 322 317 319 320 319 319 319 320 318 317 317 318 317 317 315 316 315 314 314 314 314 314 314 313 312 310 308 306 304 304 303 302 301 301 301 300 299 299 299 299 298 298 298 298 299 299 299 299 298 298 298 298 297
314 320 318 319 319 320 319 320 319 318 319 319 317 315 317 314 314 311 313 314 315 314 314 313 312 311 309 307 305 306 306 303 302 301 300 300 299 299 299 299 299 298 298 298 297 297 298 298 298 298 298 297 296 297
322 324 321 322 322 321 320 318 317 317 318 319 314 314 315 314 312 313 315 315 315 314 313 312 310 309 306 306 307 306 305 303 301 302 300 300 300 299 299 298 298 298 298 297 297 296 297 298 298 298 297 297 296 297
321 323 324 321 322 321 321 319 319 319 320 319 316 314 314 313 314 313 310 311 313 313 312 312 310 308 303 304 304 303 302 302 302 301 300 300 299 298 298 298 298 298 297 297 296 296 296 296 297 297 297 297 297 297
319 320 322 322 322 321 323 322 321 320 320 320 317 316 314 314 309 309 309 310 311 310 310 310 304 303 303 301 301 300 300 300 300 300 299 299 298 298 298 298 298 298 297 297 297 297 297 297 297 297 296 295 296 296
322 322 322 321 320 321 322 321 321 321 318 317 315 314 314 311 308 307 307 307 307 306 305 305 303 302 302 301 300 300 299 298 297 296 295 295 296 296 297 297 297 297 297 297 297 296 296 296 296 296 295 295 295 295
323 323 322 319 319 320 319 318 317 316 316 316 315 315 313 315 315 308 306 306 306 305 304 303 303 302 300 300 300 299 297 296 296 295 294 294 294 294 295 296 296 296 296 296 296 296 296 296 296 296 295 295 295 295
323 323 323 322 320 319 319 319 318 317 317 317 317 317 316 314 311 308 305 305 304 304 303 302 301 300 300 300 299 298 297 296 295 295 294 294 293 293 295 295 295 294 295 295 296 296 295 295 295 295 295 295 295 295
Wind_Speed
20 23 25 27 27 25 23 22 22 20 19 19 18 15 8 4 2 2 3 5 6 5 13 12 12 13 6 4 1 4 5 4 4 5 3 2 3 2 3 6 7 4 1 1 2 3 4 15 9 7 3 5 15 23
22 24 26 26 23 22 22 22 22 21 20 19 16 9 4 1 3 2 3 3 4 8 7 14 15 13 9 8 6 4 0 1 4 3 2 3 3 5 7 3 2 3 4 2 1 3 3 16 5 10 11 9 18 25
23 25 25 22 20 22 23 24 23 22 19 15 10 8 5 7 8 6 3 1 2 4 7 12 20 18 16 9 4 3 1 2 3 6 3 2 3 4 4 5 3 7 12 2 7 6 12 21 7 6 14 21 21 23
23 24 23 19 20 22 25 26 24 19 13 11 10 10 13 13 10 8 6 6 2 2 1 4 11 14 15 16 9 3 6 1 3 5 4 2 3 7 3 2 1 3 8 5 5 6 24 12 17 25 24 23 27 26
23 23 21 18 20 23 26 25 20 13 10 9 10 10 10 12 9 6 6 4 5 2 2 6 6 8 9 14 14 10 5 4 5 4 3 3 3 5 3 3 5 14 6 5 3 14 12 22 28 24 17 22 25 27
22 21 19 17 19 23 25 22 16 9 10 7 9 8 8 6 3 4 3 4 4 4 3 3 5 3 6 6 13 15 13 9 5 4 3 4 6 8 3 3 10 24 18 18 8 21 14 20 22 12 11 12 20 22
21 19 17 16 19 22 23 17 14 9 8 8 6 6 6 6 6 3 4 6 5 2 2 5 9 3 6 4 3 5 8 9 5 3 3 1 3 3 1 2 10 22 22 25 25 21 16 13 15 18 16 18 17 21
19 17 14 14 17 20 21 14 9 10 6 5 6 5 4 4 4 5 6 4 3 2 1 0 4 6 3 3 2 5 2 3 4 2 0 2 2 1 2 14 12 20 19 24 27 27 20 19 17 17 16 13 15 20
18 16 12 12 14 17 17 14 8 8 7 6 5 5 5 4 5 8 10 6 4 3 2 1 2 3 3 3 3 3 4 3 2 2 2 1 2 4 6 13 12 14 15 22 25 28 28 33 31 23 21 18 15 15
17 16 12 11 12 14 16 14 10 8 8 7 6 3 3 5 11 10 4 3 3 2 3 4 4 3 3 1 1 1 2 2 2 2 2 2 1 12 22 20 11 14 19 17 23 30 32 34 33 33 29 15 14 16
16 15 14 11 10 13 14 11 11 8 6 6 5 3 9 10 5 2 3 2 2 3 4 5 6 3 3 1 1 2 1 1 2 2 2 2 4 7 22 21 16 8 15 21 21 24 27 27 32 34 33 28 13 12
16 15 14 10 9 11 13 9 9 9 8 7 8 9 6 3 2 1 3 3 0 3 4 4 4 3 3 3 0 2 0 1 1 1 2 2 4 16 19 20 19 13 13 20 25 25 28 36 29 27 29 29 27 15
15 14 11 7 9 12 11 10 9 11 13 5 1 2 2 0 4 3 4 4 4 5 6 11 4 2 4 6 3 1 1 2 3 3 1 3 8 13 14 17 20 15 7 12 18 22 25 28 31 36 32 27 27 28
14 12 9 7 10 13 11 9 9 10 7 2 2 4 3 3 2 4 4 5 12 10 20 11 2 1 2 2 0 4 2 3 3 3 3 3 10 12 13 15 17 16 10 7 12 16 18 19 22 26 30 32 28 25
14 13 11 6 9 13 11 8 7 10 4 3 3 2 4 4 5 6 9 11 14 18 14 4 4 3 4 3 3 3 3 3 1 3 3 7 8 11 12 14 17 16 11 6 5 10 12 15 14 15 18 24 31 27
15 13 5 9 10 11 8 7 9 8 3 3 5 2 4 2 6 7 9 11 16 16 2 4 3 3 3 2 3 1 3 3 3 3 10 8 7 6 8 12 14 14 10 8 3 3 6 9 11 10 10 11 17 23
14 12 13 13 9 8 7 8 7 4 3 3 5 8 7 6 8 9 8 9 13 10 2 3 3 1 1 3 1 1 3 3 5 10 12 5 8 9 7 10 13 6 6 5 8 3 5 8 10 8 7 7 9 10
15 13 14 12 9 8 5 8 4 4 5 8 5 8 10 11 8 9 6 4 6 6 3 1 3 3 1 2 2 3 4 6 8 6 2 8 8 8 7 9 8 5 4 1 5 5 7 2 3 11 10 3 5 7
17 12 10 8 8 5 3 4 6 4 7 6 8 7 7 7 10 12 8 5 1 5 3 3 3 1 3 5 5 6 4 4 4 4 4 5 9 13 5 5 6 6 2 4 4 5 2 5 7 9 10 8 12 11
13 10 5 7 7 3 3 4 5 5 4 3 8 12 10 11 12 12 14 10 7 3 3 3 5 5 6 5 5 3 2 2 3 6 8 6 8 9 7 5 6 8 5 2 6 4 3 6 4 7 8 5 7 12
7 4 7 6 5 4 4 3 4 6 6 5 10 10 8 11 5 4 6 10 7 3 5 7 8 5 6 5 4 6 2 2 2 9 13 10 4 5 7 7 5 8 9 5 5 4 1 6 6 4 4 2 7 12
6 6 5 3 2 3 4 5 5 6 7 10 12 9 3 4 5 4 9 2 5 4 2 4 2 1 7 6 7 4 3 2 5 6 5 1 3 7 7 3 9 12 8 7 3 1 1 1 4 6 1 4 6 10
7 5 2 2 3 3 4 5 4 3 2 4 6 1 3 3 8 9 3 3 2 7 4 7 10 11 8 8 10 10 9 3 5 3 2 4 4 7 8 7 6 5 4 2 7 4 2 2 1 4 3 8 2 6
6 2 1 2 3 4 4 3 3 3 4 3 3 3 4 2 4 1 2 4 7 3 6 8 10 12 7 9 7 6 12 6 4 3 2 2 2 5 5 6 5 5 3 6 5 5 4 3 4 5 5 5 4 7
3 2 2 4 3 3 3 4 5 5 3 3 2 4 5 4 2 2 2 4 7 5 2 9 5 8 9 3 6 8 9 5 2 2 4 2 1 4 2 1 4 6 4 3 2 1 8 7 5 5 7 3 5 6
1 3 5 3 3 3 2 2 2 1 1 3 2 4 2 2 1 4 2 3 2 3 9 12 10 12 7 4 9 10 6 5 8 7 5 4 4 3 2 1 5 6 3 4 3 3 6 1 1 7 7 5 4 5
1 4 6 7 4 2 1 1 1 2 1 2 3 3 1 2 3 4 5 9 9 10 9 6 7 5 2 2 3 5 10 11 10 5 3 7 5 1 3 6 5 3 5 8 6 3 2 5 3 5 5 4 5 3
6 4 6 5 6 5 2 1 2 4 4 4 7 3 3 3 3 5 11 10 10 7 4 3 2 3 8 2 7 6 8 8 6 4 8 4 4 2 2 3 4 5 9 6 5 1 5 7 5 5 4 4 4 4
5 5 6 4 5 5 6 7 5 6 6 8 7 3 4 3 5 8 8 8 7 6 5 4 2 4 6 5 8 7 4 5 5 10 9 3 5 6 6 7 0 3 2 3 4 4 2 2 5 5 6 3 2 2
5 7 4 4 4 5 4 9 5 6 8 5 5 6 5 5 6 7 10 11 6 4 3 6 7 3 7 9 7 7 9 9 5 1 5 6 5 6 8 4 1 5 3 3 3 5 5 4 4 3 4 4 3 1
4 6 4 4 3 6 6 10 9 12 10 5 7 12 9 7 8 7 6 8 6 6 5 5 6 8 12 10 9 9 10 11 10 8 5 3 3 2 5 5 6 4 4 3 4 4 2 3 2 4 4 5 5 4
6 8 6 4 3 9 18 15 9 4 4 5 7 8 8 5 2 3 4 3 4 5 5 5 5 6 6 6 7 10 12 13 10 9 9 8 6 5 4 5 3 2 1 1 2 2 4 2 1 0 1 4 4 6
9 11 7 3 9 12 12 8 4 4 3 5 5 8 7 3 2 3 3 5 3 4 1 4 6 8 9 9 10 11 11 13 10 9 9 10 9 6 6 6 7 6 6 10 9 8 5 3 3 2 3 3 4 3
Wind_Direction
349 344 340 341 343 346 349 349 346 344 340 336 331 329 340 10 328 278 324 328 278 265 303 292 302 295 281 245 263 308 352 336 320 10 355 305 280 337 63 44 111 179 238 318 272 219 170 330 334 81 189 344 357 5
345 342 343 346 349 352 350 348 347 345 343 339 339 351 10 56 97 104 100 6 317 264 303 1 0 357 356 320 267 327 153 9 330 345 349 312 336 351 358 71 13 49 9 294 289 301 9 340 72 72 37 14 359 357
343 344 345 348 350 350 351 352 351 348 349 357 18 30 55 108 119 127 120 222 283 292 317 4 12 16 11 348 284 258 17 37 335 348 307 330 14 340 11 33 35 1 15 35 307 24 331 315 98 53 353 337 335 341
344 345 345 347 348 351 354 354 355 358 15 32 45 78 97 97 90 89 76 57 107 13 2 345 0 22 11 10 10 300 298 75 10 20 43 10 7 353 18 346 15 307 307 288 271 317 328 30 344 333 327 317 326 327
343 344 345 347 350 353 357 356 4 18 37 45 80 99 98 96 103 105 100 80 47 53 286 306 338 13 40 50 62 66 77 57 25 26 37 29 352 351 340 267 13 357 354 10 299 296 285 285 315 333 323 302 309 314
343 344 343 348 352 355 359 360 16 45 42 67 96 85 86 95 74 16 357 8 337 10 337 335 328 313 21 30 54 66 81 75 67 49 19 26 351 340 350 16 356 9 4 357 324 331 316 288 302 327 317 316 291 289
342 345 343 348 355 359 4 8 27 52 43 41 97 90 74 60 47 23 334 304 304 2 312 319 324 302 323 10 46 53 65 65 79 84 62 57 293 354 271 346 12 9 9 13 15 14 7 354 320 309 300 299 289 277
342 345 345 347 358 3 7 13 29 33 37 26 35 65 55 25 350 341 346 9 332 324 248 353 284 315 324 343 40 24 70 86 48 105 172 229 261 273 29 343 6 18 18 22 25 25 15 7 3 341 335 321 298 262
342 345 344 342 353 359 7 6 11 5 360 358 338 326 319 348 332 323 315 316 316 286 292 227 236 280 313 347 11 21 27 65 36 51 5 27 335 39 319 341 13 20 15 15 24 33 28 29 24 12 349 347 336 310
341 344 343 334 342 348 0 2 2 355 348 346 342 321 310 317 319 315 304 311 292 259 243 242 231 248 212 268 327 76 57 35 31 1 359 42 332 339 4 15 357 18 38 35 26 22 24 25 23 22 25 21 358 325
338 341 343 329 330 342 356 359 5 2 1 360 339 313 311 316 308 304 298 281 310 290 228 253 251 258 241 159 241 217 118 49 61 4 17 29 334 320 2 9 13 7 36 44 49 47 44 39 38 32 29 33 32 17
334 338 339 330 325 332 341 343 341 345 335 311 310 300 298 308 307 316 269 309 264 253 262 246 316 209 204 216 153 221 345 89 82 113 51 16 274 345 0 5 14 10 26 37 39 43 44 44 39 38 38 40 40 54
331 334 341 345 348 339 327 323 322 331 331 321 302 282 285 70 16 57 318 305 324 285 285 308 267 182 160 216 227 132 75 41 112 46 330 235 302 346 356 1 8 16 5 23 39 44 45 49 42 37 37 37 44 54
329 327 319 313 345 344 331 309 308 324 326 278 236 319 161 322 271 217 208 225 307 292 326 324 155 115 162 125 65 58 319 54 56 26 290 271 315 337 349 359 4 13 7 352 24 38 42 47 54 54 45 37 31 37
328 323 311 284 333 339 334 309 302 311 281 251 208 253 216 229 265 282 303 308 340 341 340 127 62 44 11 63 43 67 34 1 96 234 240 289 308 324 344 353 357 5 13 343 344 27 33 37 40 44 42 42 39 36
332 333 315 300 314 324 315 290 306 303 252 241 233 213 226 283 289 281 296 318 347 349 11 64 79 59 28 87 50 68 98 234 265 255 320 306 293 332 343 347 347 357 8 20 339 314 4 12 29 25 29 28 45 41
340 337 318 306 313 306 293 275 295 250 249 239 245 234 238 248 257 267 286 326 338 357 14 62 54 342 115 87 93 166 193 221 290 320 330 273 287 297 309 327 333 358 15 56 46 29 299 331 336 328 1 44 43 27
331 326 304 307 314 315 267 242 252 252 249 247 219 218 226 239 254 258 265 316 344 359 25 71 105 51 161 216 256 226 219 286 309 312 2 18 5 335 299 292 330 99 74 58 43 46 40 67 12 34 20 43 33 29
325 318 297 295 305 310 250 234 217 258 255 291 260 251 245 250 255 255 236 228 43 82 110 87 86 197 239 223 207 210 251 321 340 11 12 347 353 357 306 281 285 200 87 43 42 41 30 69 63 44 27 23 43 44
317 311 275 300 305 280 259 260 225 259 262 278 282 275 264 272 276 249 224 219 206 186 145 158 191 212 218 227 213 194 214 360 3 349 339 315 324 338 340 312 274 213 214 124 56 42 61 101 83 44 48 58 21 24
327 304 296 296 294 235 266 282 257 274 294 275 284 294 302 289 298 233 246 234 211 229 208 209 204 194 182 187 177 158 200 271 324 333 322 309 308 313 322 330 210 180 200 166 77 68 87 77 91 72 50 47 46 34
324 319 316 303 287 278 266 249 260 300 281 278 287 289 298 32 10 16 354 282 240 278 263 175 140 267 221 222 235 229 177 233 329 326 319 1 343 328 330 116 114 113 147 187 156 20 188 98 29 21 93 168 87 46
326 317 282 267 271 251 259 267 261 249 239 293 303 343 65 47 12 340 333 332 357 26 20 107 35 306 271 268 255 244 222 233 278 277 63 19 53 117 119 97 60 40 34 14 203 190 153 269 360 14 122 163 69 35
317 271 244 252 249 263 281 257 251 285 295 311 357 18 28 34 59 147 259 313 349 359 124 53 330 332 325 301 255 232 198 204 285 261 233 290 129 138 77 54 30 1 56 93 130 139 167 223 149 134 142 154 102 65
301 208 233 265 255 271 275 358 7 21 1 339 49 54 331 347 28 291 270 320 1 111 138 295 301 298 322 235 196 199 199 211 258 166 182 207 313 186 184 81 1 354 12 299 312 55 170 150 121 140 157 126 78 70
105 211 196 231 249 207 224 195 146 176 265 5 80 154 316 269 306 271 256 331 226 257 296 307 299 313 306 244 219 215 228 240 238 222 208 223 258 271 238 77 12 7 356 11 12 126 163 172 90 141 137 108 79 73
283 265 229 242 272 249 280 83 126 135 249 231 150 127 261 289 269 268 329 355 2 6 1 341 324 326 303 194 155 290 282 264 249 271 219 205 198 158 333 318 332 349 320 319 313 299 181 165 143 153 135 97 62 95
234 255 201 228 205 228 215 191 205 191 202 200 135 164 199 225 260 335 339 330 318 329 353 2 337 151 182 258 330 338 320 268 224 206 184 128 65 135 242 281 244 13 342 334 355 49 161 167 154 160 154 144 109 100
235 235 227 218 206 205 221 203 223 212 185 174 170 173 202 234 351 346 354 349 312 317 297 275 241 182 95 22 340 340 320 193 210 191 193 185 180 195 190 189 138 289 295 20 350 20 60 158 134 116 109 126 133 127
250 237 233 219 207 225 247 196 182 181 185 175 148 130 147 105 51 26 19 15 14 38 85 141 118 71 41 29 46 57 62 66 77 90 191 182 180 212 197 297 10 206 172 101 65 77 115 130 124 105 77 56 109 76
255 229 227 213 253 287 180 147 142 145 140 133 133 151 146 136 78 61 50 29 57 89 72 80 68 56 44 39 51 52 60 45 21 8 0 332 301 279 263 209 175 179 200 189 137 131 88 63 99 85 49 55 60 44
235 221 210 196 214 146 134 132 141 122 124 152 152 158 168 175 146 128 176 208 338 356 357 6 19 78 66 56 70 64 56 44 45 44 44 46 52 61 87 125 131 107 87 214 209 194 137 100 111 33 80 49 44 30
280 266 244 240 152 178 186 152 128 130 152 188 186 191 180 168 134 157 95 194 291 332 194 140 107 102 96 86 66 60 49 47 63 62 58 62 62 70 80 81 77 79 101 106 112 126 104 85 88 79 84 61 40 44